OPS 4682 DEB, 20131

Orbit data source: Space-Track

OPS 4682 DEB, 20131 is space debris in LEO originally from a launch on Sat, 03 Apr 1965 UTC launched from the Air Force Western Test Range (AFWTR). Debris objects in space refer to the collection of defunct objects orbiting the Earth. Examples of debris include non-operational satellites, rocket bodies, and fragments generated from explosions, collisions, or faulty payload assembly.

Loading next visibility...
Identifier
20131, 1965-027BD
Orbit
LEO
Country
Flag of USUS
Related business
Manufacturer
Unknown
Mission
Spacecraft
Bus & Motor
Unknown
Mass
Unknown
Launch date (UTC)
1965-04-03 (61 years ago)
Launch vehicle
Unknown
Launch site
Air Force Western Test Range (AFWTR)
Object type
Payload
Rocket body
Debris
Shape & HBR
Unknown shape, 0.1 m
Radar Cross Section
Small (<0.1 m²)

Expand to show TLE details & history
Last TLE update: 2 days ago

TLE from 2 days ago
0 OPS 4682 DEB
1 20131U 65027BD  25339.53365793  .00000795  00000-0  26020-2 0  9993
2 20131  90.2390   0.2786 0034705 106.9942  45.0148 13.00210800739809
Epoch: 2025-12-05T12:48Z
TLE epoch observation values (Epoch: 2025-12-05T12:48:28.045Z)
Latitude
27.74589°
Longitude
-86.28754°
Altitude
1,245.968 km
Speed
7.243 km/s
True Right ascension
12h 01m 36s
True Declination
27° 36' 49"
Sunlit
Object was in daylight at epoch
Visualization orbit readout
Latitude
Unknown
Longitude
Unknown
Altitude
Unknown
Speed
Unknown
Apparent Right ascension
Unknown
Apparent Declination
Unknown
Sunlit
N/A
Visualization observer readout
Local Sidereal Time
07:38:33
Azimuth
Unknown
Elevation
Unknown
Doppler factor
Unknown
Orbital elements
Apogee altitude
1,284.89 km
Perigee altitude
1,231.885 km
Semi-major axis
7,636.524 km
Eccentricity
0.00347
Inclination
90.239°
RAAN
0.2786°
Arg. of periapsis
106.9942°
True anomaly
45.29695°
Mean anomaly
45.0148°
Eccentric anomaly
45.15579°
Mean motion
3.25237 °/min
Orbital period
110.69 mins
BSTAR
0.002602
Loading maneuver chart data...
Computing Atmospheric mass density...
Loading historical data...
Loading historical data...
Loading historical data...
Loading historical data...
Loading historical data...
Loading historical data...
Loading historical data...

Documentation

Showing up to 5 results
|